EW6304 Weather Reports


Display with metric or nautical units.
time (UTC)temp
F
wind
direction
speed
MPH
gust
MPH
rain 1hr
in
rain 24hr
in
rain mn
in
humidity
%
barometer
mb
20260508080739 42 296 0.0 1.0 0.00 0.20 0.00 74 1007.4
20260508080244 42 296 0.0 1.0 0.00 0.23 0.00 74 1007.3
20260508080239 42 295 0.0 1.0 0.00 0.22 0.00 74 1007.4
20260508075239 42 296 0.0 0.0 0.00 0.23 0.00 72 1007.2
20260508074738 42 296 0.0 0.0 0.00 0.25 0.00 71 1007.1
20260508074237 42 295 0.0 0.0 0.00 0.26 0.00 71 1007.0
20260508073736 43 295 0.0 0.0 0.00 0.29 0.00 71 1006.9
20260508073236 43 295 0.0 0.0 0.00 0.30 0.00 70 1006.8
20260508072736 44 295 0.0 0.0 0.00 0.30 0.00 70 1006.8
20260508072242 44 295 0.0 0.0 0.00 0.30 0.00 67 1006.5
20260508072237 44 296 0.0 0.0 0.00 0.30 0.00 68 1006.6
20260508071241 45 295 0.0 0.0 0.00 0.30 0.00 67 1006.4
20260508071235 45 295 0.0 0.0 0.00 0.30 0.00 66 1006.5
20260508070237 46 296 0.0 0.0 0.00 0.30 0.00 66 1006.5
20260508065735 46 296 0.0 0.0 0.00 0.30 0.00 64 1006.5
20260508065236 47 296 0.0 0.0 0.00 0.30 0.00 64 1006.6
20260508064733 48 295 0.0 1.0 0.00 0.30 0.00 62 1006.6
20260508064233 48 296 0.0 1.0 0.00 0.30 0.00 61 1006.5
20260508063734 49 0 1.0 2.0 0.00 0.30 0.00 60 1006.6
20260508063233 49 296 1.0 3.0 0.00 0.30 0.00 54 1006.6
20260508062735 49 296 2.0 4.0 0.00 0.30 0.00 54 1006.6
20260508062233 49 275 1.0 4.0 0.00 0.30 0.00 53 1006.5
20260508061733 49 271 1.0 3.0 0.00 0.30 0.00 53 1006.5
20260508061234 49 275 1.0 3.0 0.00 0.30 0.00 54 1006.5
20260508060731 49 266 1.0 3.0 0.00 0.30 0.00 53 1006.5
20260508060230 49 294 2.0 4.0 0.00 0.30 0.00 52 1006.5
20260508055736 50 311 1.0 4.0 0.00 0.30 0.00 52 1006.5
20260508055731 50 290 2.0 4.0 0.00 0.30 0.00 52 1006.6
20260508055351 50 305 1.0 3.0 0.00 0.30 0.00 51 1006.5
20260508054730 50 306 1.0 3.0 0.00 0.30 0.00 52 1006.6
20260508054346 50 308 2.0 9.0 0.00 0.30 0.00 51 1006.4
20260508053229 51 306 2.0 9.0 0.00 0.30 0.00 51 1006.5
20260508052729 51 276 2.0 8.0 0.00 0.30 0.00 50 1006.4
20260508052230 51 287 2.0 7.0 0.00 0.30 0.00 51 1006.5
20260508051729 51 288 2.0 5.0 0.00 0.30 0.00 50 1006.5
20260508051228 51 284 2.0 7.0 0.00 0.30 0.00 50 1006.4
20260508050728 51 284 3.0 7.0 0.00 0.30 0.00 50 1006.5
20260508050227 51 265 2.0 6.0 0.00 0.30 0.00 50 1006.5
20260508045728 51 304 2.0 4.0 0.00 0.30 0.00 50 1006.5
20260508045227 52 292 2.0 7.0 0.00 0.30 0.00 50 1006.5
20260508044728 52 295 3.0 7.0 0.00 0.30 0.00 50 1006.6
20260508044227 52 306 2.0 4.0 0.00 0.30 0.00 50 1006.6
20260508043727 52 303 2.0 7.0 0.00 0.30 0.00 50 1006.6
20260508043227 52 317 3.0 7.0 0.00 0.30 0.00 50 1006.6
20260508042726 52 291 2.0 6.0 0.00 0.30 0.00 49 1006.6
20260508042228 52 280 3.0 7.0 0.00 0.30 0.00 50 1006.6
20260508041731 53 284 3.0 7.0 0.00 0.30 0.00 49 1006.7
20260508041725 53 263 3.0 7.0 0.00 0.30 0.00 49 1006.7
20260508040725 53 298 3.0 10.0 0.00 0.30 0.00 49 1006.7
20260508040226 53 273 4.0 10.0 0.00 0.30 0.00 48 1006.7
20260508035726 53 223 3.0 8.0 0.00 0.30 0.30 48 1006.7
20260508035226 53 325 2.0 8.0 0.00 0.30 0.30 48 1006.7
20260508034726 53 300 2.0 5.0 0.00 0.30 0.30 48 1006.7
20260508034225 53 311 2.0 7.0 0.00 0.30 0.30 49 1006.7
20260508033732 53 312 2.0 6.0 0.00 0.30 0.30 48 1006.7
20260508033726 53 269 2.0 7.0 0.00 0.30 0.30 48 1006.7
20260508033223 53 290 2.0 6.0 0.00 0.30 0.30 49 1006.7
20260508032223 54 300 2.0 6.0 0.00 0.30 0.30 48 1006.6
20260508031723 54 300 2.0 5.0 0.00 0.30 0.30 47 1006.7
20260508031224 54 294 2.0 5.0 0.00 0.30 0.30 48 1006.7
20260508031220 54 323 2.0 5.0 0.00 0.30 0.30 48 1006.8
20260508030837 54 286 2.0 5.0 0.00 0.30 0.30 48 1006.8
20260508025719 54 279 1.0 4.0 0.00 0.30 0.30 48 1006.8
20260508025220 54 257 1.0 4.0 0.00 0.30 0.30 48 1006.8
20260508024719 54 275 1.0 4.0 0.00 0.30 0.30 48 1006.7
20260508024226 54 261 1.0 4.0 0.00 0.30 0.30 47 1006.7
20260508024220 54 307 1.0 3.0 0.00 0.30 0.30 47 1006.8
20260508023225 54 277 2.0 6.0 0.00 0.30 0.30 47 1006.7
20260508023219 54 301 2.0 6.0 0.00 0.30 0.30 46 1006.7
20260508022838 55 309 2.0 6.0 0.00 0.30 0.30 46 1006.8
20260508021722 55 286 2.0 7.0 0.00 0.30 0.30 46 1006.9
20260508021716 55 259 2.0 7.0 0.00 0.30 0.30 45 1006.9
20260508020715 55 264 2.0 7.0 0.00 0.30 0.30 45 1006.9
20260508020216 55 296 2.0 6.0 0.00 0.30 0.30 45 1006.9
20260508015714 55 271 2.0 7.0 0.00 0.30 0.30 45 1006.8
20260508015221 55 269 2.0 6.0 0.00 0.30 0.30 45 1006.8
20260508015215 55 311 3.0 7.0 0.00 0.30 0.30 45 1006.8
20260508014835 55 318 2.0 6.0 0.00 0.30 0.30 45 1006.7
20260508013719 56 259 2.0 7.0 0.00 0.30 0.30 44 1006.7
20260508013715 56 298 2.0 7.0 0.00 0.30 0.30 44 1006.7
20260508012714 56 306 2.0 4.0 0.00 0.30 0.30 44 1006.5
20260508012214 56 315 2.0 7.0 0.00 0.30 0.30 44 1006.5
20260508011716 56 302 2.0 7.0 0.00 0.30 0.30 43 1006.5
20260508011221 57 329 2.0 6.0 0.00 0.30 0.30 43 1006.3
20260508011214 56 296 2.0 7.0 0.00 0.30 0.30 42 1006.3
20260508010215 57 242 2.0 6.0 0.00 0.30 0.30 42 1006.3
20260508005715 57 277 2.0 6.0 0.00 0.30 0.30 41 1006.2
20260508005215 57 290 3.0 6.0 0.00 0.30 0.30 41 1006.2
20260508004720 58 257 3.0 7.0 0.00 0.30 0.30 40 1005.8
20260508004716 57 330 3.0 7.0 0.00 0.30 0.30 40 1006.0
20260508003714 58 246 3.0 12.0 0.00 0.30 0.30 39 1005.6
20260508003212 58 296 4.0 12.0 0.00 0.30 0.30 39 1005.4
20260508002712 58 312 4.0 11.0 0.00 0.30 0.30 39 1005.3
20260508002213 58 322 4.0 11.0 0.00 0.30 0.30 39 1005.4
20260508001712 58 309 3.0 9.0 0.00 0.30 0.30 39 1005.3
20260508001214 58 312 3.0 12.0 0.00 0.30 0.30 39 1005.3
20260508000713 59 252 3.0 12.0 0.00 0.30 0.30 39 1005.2
20260508000213 59 302 3.0 9.0 0.00 0.30 0.30 39 1005.1
20260507235717 60 252 4.0 9.0 0.00 0.31 0.30 37 1005.1
20260507235711 59 287 2.0 9.0 0.00 0.30 0.30 38 1005.1
20260507235210 59 280 3.0 9.0 0.00 0.31 0.30 38 1005.1
20260507234218 60 224 3.0 10.0 0.00 0.31 0.30 37 1005.1
20260507234211 60 293 3.0 9.0 0.00 0.31 0.30 37 1005.0
20260507233712 60 269 3.0 7.0 0.00 0.31 0.30 37 1005.1
20260507232710 60 325 3.0 10.0 0.00 0.31 0.30 36 1004.9
20260507232210 61 291 4.0 10.0 0.00 0.31 0.30 36 1005.0
20260507231711 61 237 4.0 10.0 0.00 0.31 0.30 36 1004.9
20260507231210 61 319 4.0 10.0 0.00 0.31 0.30 35 1004.8
20260507230710 61 286 3.0 9.0 0.00 0.31 0.30 35 1004.8
20260507230211 62 275 5.0 11.0 0.00 0.31 0.30 34 1004.7
20260507230207 61 266 4.0 11.0 0.00 0.31 0.30 35 1004.7
20260507225206 62 273 4.0 13.0 0.00 0.31 0.30 35 1004.7
20260507224705 62 266 4.0 13.0 0.00 0.31 0.30 35 1004.5
20260507224209 63 237 4.0 14.0 0.00 0.32 0.30 35 1004.4
20260507224205 62 234 5.0 14.0 0.00 0.31 0.30 34 1004.5
20260507223205 63 325 4.0 13.0 0.00 0.32 0.30 34 1004.4
20260507222705 63 330 4.0 13.0 0.00 0.33 0.30 35 1004.4
20260507222204 64 303 4.0 12.0 0.00 0.33 0.30 34 1004.3
20260507221705 64 329 4.0 12.0 0.00 0.34 0.30 34 1004.3
20260507221204 65 283 4.0 9.0 0.00 0.34 0.30 34 1004.3
20260507220704 65 263 4.0 11.0 0.00 0.35 0.30 34 1004.2
20260507220204 65 15 4.0 15.0 0.00 0.35 0.30 34 1004.2
20260507215703 65 325 5.0 15.0 0.00 0.35 0.30 34 1004.2
20260507215201 65 294 5.0 12.0 0.00 0.35 0.30 32 1004.2
20260507214702 66 264 4.0 11.0 0.00 0.35 0.30 34 1004.1
20260507214208 66 303 3.0 9.0 0.00 0.35 0.30 33 1003.9
20260507214203 66 271 4.0 11.0 0.00 0.35 0.30 33 1004.1
20260507213202 66 237 3.0 8.0 0.00 0.35 0.30 33 1003.9
20260507212703 66 279 3.0 9.0 0.00 0.35 0.30 33 1003.9
20260507212202 66 257 3.0 9.0 0.00 0.35 0.30 33 1003.9
20260507211707 66 238 3.0 9.0 0.00 0.35 0.30 32 1003.8
20260507211703 66 250 3.0 9.0 0.00 0.35 0.30 34 1003.9
20260507210705 66 267 3.0 10.0 0.00 0.35 0.30 32 1003.8
20260507210701 66 257 3.0 10.0 0.00 0.35 0.30 33 1003.8
20260507205658 66 305 4.0 13.0 0.00 0.35 0.30 33 1003.8
20260507205158 66 312 4.0 13.0 0.00 0.35 0.30 32 1003.7
20260507204658 65 257 3.0 9.0 0.00 0.35 0.30 34 1003.8
20260507204158 65 277 4.0 12.0 0.00 0.35 0.30 33 1003.9
20260507203656 65 326 5.0 12.0 0.00 0.35 0.30 33 1003.8
20260507203157 65 294 5.0 12.0 0.00 0.35 0.30 32 1003.8
20260507202656 65 281 5.0 12.0 0.00 0.35 0.30 34 1003.7
20260507202157 65 322 4.0 12.0 0.00 0.35 0.30 34 1003.8
20260507201657 65 255 3.0 9.0 0.00 0.35 0.30 35 1003.7
20260507201203 66 245 3.0 7.0 0.00 0.35 0.30 31 1003.8
20260507201157 65 307 3.0 9.0 0.00 0.35 0.30 31 1003.7
20260507200815 65 263 4.0 10.0 0.00 0.36 0.30 31 1003.9
20260507200156 66 252 4.0 11.0 0.00 0.35 0.30 32 1003.8
20260507195654 65 278 4.0 11.0 0.00 0.36 0.30 33 1003.8
20260507194658 65 305 6.0 17.0 0.00 0.37 0.30 33 1004.0
20260507194652 65 317 5.0 12.0 0.00 0.37 0.30 33 1003.9
20260507194152 65 269 5.0 12.0 0.00 0.37 0.30 31 1004.0
20260507193150 65 323 6.0 17.0 0.00 0.37 0.30 33 1004.1
20260507192650 66 277 3.0 12.0 0.00 0.37 0.30 35 1004.1
20260507192150 66 348 3.0 10.0 0.00 0.37 0.30 35 1004.1
20260507191651 65 266 4.0 12.0 0.00 0.37 0.30 37 1004.2
20260507191150 65 254 4.0 12.0 0.00 0.37 0.30 36 1004.3
20260507190651 65 319 4.0 14.0 0.00 0.37 0.30 40 1004.2
20260507190150 65 296 4.0 14.0 0.00 0.37 0.30 38 1004.3
20260507185651 66 296 3.0 9.0 0.00 0.37 0.30 38 1004.4
20260507185151 67 285 3.0 12.0 0.00 0.37 0.30 43 1004.5
20260507184656 65 313 5.0 12.0 0.00 0.37 0.30 42 1004.6
20260507184650 66 303 4.0 12.0 0.00 0.37 0.30 44 1004.5
20260507183649 65 338 5.0 12.0 0.00 0.37 0.30 39 1004.7
20260507183151 65 215 4.0 10.0 0.00 0.37 0.30 41 1004.6
20260507182649 65 237 4.0 11.0 0.00 0.37 0.30 41 1004.7
20260507182149 65 314 4.0 11.0 0.00 0.37 0.30 39 1004.8
20260507181655 66 263 4.0 12.0 0.00 0.37 0.30 48 1004.9
20260507181651 65 329 4.0 12.0 0.00 0.37 0.30 40 1004.8
20260507180651 66 313 4.0 10.0 0.00 0.37 0.30 42 1004.9
20260507180154 65 325 3.0 13.0 0.00 0.37 0.30 40 1005.0
20260507180149 65 325 4.0 13.0 0.00 0.37 0.30 42 1005.0
20260507175149 65 263 3.0 8.0 0.00 0.37 0.30 43 1005.0
20260507174655 65 254 4.0 9.0 0.00 0.37 0.30 41 1005.0
20260507174649 65 334 3.0 9.0 0.00 0.37 0.30 47 1004.9
20260507173649 65 310 4.0 10.0 0.00 0.37 0.30 46 1005.0
20260507173147 65 348 3.0 10.0 0.00 0.37 0.30 51 1004.9
20260507172647 64 319 3.0 9.0 0.00 0.37 0.30 50 1004.9
20260507172147 65 242 4.0 11.0 0.00 0.37 0.30 50 1005.1
20260507171652 65 220 3.0 11.0 0.00 0.37 0.30 51 1005.2
20260507171647 64 276 3.0 11.0 0.00 0.37 0.30 50 1005.2
20260507170648 65 260 3.0 11.0 0.00 0.37 0.30 53 1005.3
20260507170147 65 291 4.0 11.0 0.00 0.37 0.30 50 1005.3
20260507165651 63 258 4.0 11.0 0.00 0.37 0.30 52 1005.3
20260507165646 64 268 4.0 11.0 0.00 0.37 0.30 54 1005.2
20260507164651 63 0 3.0 11.0 0.00 0.37 0.30 53 1005.4
20260507164645 63 332 4.0 11.0 0.00 0.37 0.30 53 1005.4
20260507163646 63 275 2.0 10.0 0.00 0.37 0.30 56 1005.4
20260507163148 62 305 2.0 7.0 0.00 0.37 0.30 60 1005.5
20260507162645 62 288 3.0 6.0 0.00 0.37 0.30 59 1005.8
20260507162145 62 331 3.0 7.0 0.00 0.37 0.30 58 1005.8
20260507161806 63 323 3.0 9.0 0.00 0.37 0.30 60 1005.9
20260507161649 63 252 3.0 7.0 0.00 0.37 0.30 58 1005.8
20260507161645 62 294 3.0 7.0 0.00 0.37 0.30 61 1005.7
20260507160143 62 312 3.0 9.0 0.00 0.37 0.30 60 1005.9
20260507155645 62 290 3.0 8.0 0.00 0.37 0.30 61 1006.0
20260507155143 62 225 4.0 9.0 0.00 0.37 0.30 62 1006.1
20260507154643 62 327 4.0 9.0 0.00 0.37 0.30 60 1006.2
20260507154144 62 333 3.0 8.0 0.00 0.37 0.30 60 1006.2
20260507153643 62 302 2.0 7.0 0.00 0.37 0.30 60 1006.3
20260507153143 61 243 2.0 7.0 0.00 0.37 0.30 59 1006.2
20260507152645 61 232 3.0 8.0 0.00 0.37 0.30 60 1006.2
20260507152144 60 251 3.0 8.0 0.00 0.37 0.30 62 1006.3
20260507151642 60 97 4.0 10.0 0.00 0.37 0.30 61 1006.3
20260507151141 60 300 3.0 10.0 0.00 0.37 0.30 60 1006.4
20260507150642 60 276 2.0 9.0 0.00 0.37 0.30 59 1006.4
20260507150149 60 328 3.0 11.0 0.00 0.37 0.30 67 1006.6
20260507150143 60 244 3.0 8.0 0.00 0.37 0.30 63 1006.5
20260507145142 59 224 3.0 11.0 0.00 0.37 0.30 67 1006.6
20260507144642 58 320 3.0 11.0 0.00 0.37 0.30 66 1006.5
20260507144142 59 303 3.0 9.0 0.00 0.37 0.30 69 1006.5
20260507143642 58 251 2.0 9.0 0.00 0.37 0.30 69 1006.4
20260507143139 58 273 2.0 7.0 0.00 0.37 0.30 72 1006.6
20260507142639 58 321 3.0 11.0 0.00 0.37 0.30 71 1006.7
20260507142140 58 288 3.0 11.0 0.00 0.37 0.30 70 1006.7
20260507141646 58 43 3.0 10.0 0.00 0.37 0.30 73 1006.7
20260507141640 58 316 2.0 6.0 0.00 0.37 0.30 73 1006.7
20260507140637 57 292 4.0 11.0 0.00 0.37 0.30 74 1006.8
20260507140137 56 305 4.0 11.0 0.00 0.37 0.30 74 1006.9
20260507135650 55 322 4.0 11.0 0.00 0.37 0.30 80 1006.9
20260507135636 57 237 3.0 9.0 0.00 0.37 0.30 77 1006.8
20260507135138 56 209 2.0 6.0 0.00 0.37 0.30 78 1006.7
20260507134636 56 355 3.0 11.0 0.00 0.37 0.30 82 1006.7
20260507134257 55 232 3.0 10.0 0.00 0.37 0.30 83 1006.9
20260507133138 54 304 2.0 7.0 0.00 0.37 0.30 86 1006.9
20260507132637 54 341 3.0 9.0 0.00 0.37 0.30 89 1006.8
20260507132137 53 339 3.0 9.0 0.00 0.37 0.30 89 1006.7
20260507131636 53 325 3.0 8.0 0.00 0.37 0.30 91 1006.9
20260507131136 52 275 3.0 8.0 0.00 0.37 0.30 92 1007.1
20260507130637 52 304 2.0 7.0 0.00 0.37 0.30 93 1007.0
20260507130138 52 0 2.0 7.0 0.00 0.37 0.30 94 1006.9
20260507125635 51 315 2.0 5.0 0.00 0.37 0.30 94 1006.9
20260507125135 51 287 2.0 6.0 0.00 0.37 0.30 94 1006.9
20260507124634 51 262 2.0 7.0 0.00 0.37 0.30 94 1006.9
20260507124134 51 222 1.0 7.0 0.00 0.37 0.30 94 1006.9
20260507123634 51 300 1.0 4.0 0.00 0.37 0.30 94 1007.0
20260507123135 51 291 1.0 3.0 0.00 0.37 0.30 95 1007.4
20260507122632 51 291 1.0 3.0 0.00 0.37 0.30 95 1007.2
20260507122134 51 291 1.0 3.0 0.01 0.37 0.30 95 1007.3
20260507121632 51 301 0.0 1.0 0.02 0.37 0.30 94 1007.3
20260507121134 50 301 0.0 1.0 0.03 0.37 0.30 94 1007.0
20260507120638 50 301 0.0 1.0 0.04 0.37 0.30 94 1006.8
20260507120634 50 301 0.0 1.0 0.04 0.37 0.30 95 1006.9
20260507115634 50 301 0.0 1.0 0.05 0.37 0.30 94 1006.9
20260507115132 49 301 0.0 1.0 0.05 0.37 0.30 94 1007.0
20260507114638 49 301 1.0 2.0 0.05 0.37 0.30 94 1006.7
20260507114634 49 301 0.0 1.0 0.05 0.37 0.30 94 1006.9
20260507113634 49 301 1.0 2.0 0.05 0.37 0.30 94 1007.1
20260507113137 49 301 1.0 3.0 0.05 0.37 0.30 93 1006.4
20260507113132 49 301 1.0 1.0 0.05 0.37 0.30 94 1007.0
20260507112132 49 301 1.0 3.0 0.04 0.36 0.30 93 1006.4
20260507111638 49 293 1.0 3.0 0.02 0.34 0.27 93 1006.9
20260507111633 49 306 1.0 3.0 0.03 0.35 0.29 93 1006.9
20260507110632 49 260 1.0 3.0 0.01 0.33 0.27 93 1006.9
20260507110132 49 260 1.0 5.0 0.02 0.33 0.26 93 1006.9
20260507105635 49 248 1.0 5.0 0.02 0.32 0.25 93 1006.5
20260507105134 49 308 1.0 4.0 0.02 0.32 0.25 93 1006.5
20260507104638 49 313 2.0 5.0 0.02 0.32 0.25 93 1006.5
20260507104632 49 305 1.0 3.0 0.02 0.32 0.25 93 1006.3
20260507104133 49 294 2.0 5.0 0.02 0.32 0.25 93 1006.4
20260507103133 49 279 1.0 3.0 0.03 0.32 0.25 93 1006.6
20260507102630 49 311 1.0 4.0 0.03 0.32 0.25 93 1006.6
20260507102130 49 321 1.0 4.0 0.03 0.32 0.25 93 1006.9
20260507101632 50 271 1.0 4.0 0.03 0.32 0.25 93 1007.0
20260507101131 50 254 2.0 7.0 0.03 0.32 0.25 93 1006.7
20260507100629 50 331 2.0 7.0 0.03 0.32 0.25 93 1006.5
20260507100128 50 302 2.0 7.0 0.02 0.31 0.24 93 1006.5
20260507095629 50 302 2.0 4.0 0.02 0.30 0.23 93 1006.3
20260507095128 50 0 2.0 5.0 0.02 0.30 0.23 93 1006.5
20260507094634 50 0 2.0 8.0 0.02 0.30 0.23 93 1006.2
20260507094629 50 0 2.0 5.0 0.02 0.30 0.23 93 1006.2
20260507093631 50 295 2.0 8.0 0.03 0.30 0.23 93 1006.2
20260507093129 51 294 2.0 6.0 0.03 0.29 0.22 93 1006.2
20260507092636 51 309 1.0 4.0 0.04 0.29 0.22 93 1006.2
20260507092630 51 272 1.0 6.0 0.03 0.29 0.22 93 1006.2
20260507091626 51 309 1.0 4.0 0.07 0.29 0.22 93 1006.4
20260507091129 51 324 1.0 3.0 0.11 0.29 0.22 93 1006.3
20260507090626 51 324 1.0 5.0 0.12 0.29 0.22 93 1006.0
20260507090131 51 297 2.0 5.0 0.14 0.28 0.21 93 1005.6
20260507090126 51 324 2.0 5.0 0.14 0.29 0.22 93 1005.8
20260507085127 51 300 3.0 7.0 0.15 0.28 0.21 93 1005.8
20260507084628 52 319 3.0 9.0 0.17 0.28 0.21 92 1006.0
20260507084131 52 308 2.0 9.0 0.18 0.28 0.21 93 1005.9
20260507084125 52 0 2.0 4.0 0.19 0.27 0.20 93 1005.7
20260507083124 52 0 1.0 4.0 0.19 0.26 0.19 93 1005.9
20260507082632 53 0 4.0 10.0 0.15 0.22 0.15 92 1006.0
20260507082627 53 0 2.0 5.0 0.19 0.26 0.19 93 1005.2
20260507082125 53 0 2.0 10.0 0.18 0.25 0.18 92 1005.8
20260507081125 53 306 3.0 10.0 0.11 0.18 0.12 92 1006.0